EW3309 Weather Reports


Display with metric or nautical units.
time (UTC)temp
F
wind
direction
speed
MPH
gust
MPH
rain 1hr
in
rain 24hr
in
rain mn
in
humidity
%
barometer
mb
20260903223019 83 262 0.0 0.0 0.00 0.00 0.00 46 1011.1
20260903221517 85 284 0.0 0.0 0.00 0.00 0.00 43 1011.2
20260903220016 85 302 0.0 0.0 0.00 0.00 0.00 43 1011.2
20260903214513 85 203 0.0 0.0 0.00 0.00 0.00 44 1011.3
20260903213011 85 253 0.0 0.0 0.00 0.00 0.00 46 1011.3
20260903211509 84 213 0.0 0.0 0.00 0.00 0.00 50 1011.3
20260903210007 83 256 0.0 0.0 0.00 0.00 0.00 50 1011.4
20260903204507 84 275 0.0 0.0 0.00 0.00 0.00 49 1011.4
20260903203006 84 216 0.0 0.0 0.00 0.00 0.00 50 1011.3
20260903201504 84 240 0.0 0.0 0.00 0.00 0.00 50 1011.4
20260903200003 85 284 0.0 0.0 0.00 0.00 0.00 49 1011.6
20260903194502 86 217 0.0 0.0 0.00 0.00 0.00 47 1011.7
20260903193101 86 246 0.0 0.0 0.00 0.00 0.00 43 1011.7
20260903191602 85 257 0.0 0.0 0.00 0.00 0.00 35 1011.9
20260903190053 85 218 0.0 0.0 0.00 0.00 0.00 38 1012.2
20260903184554 85 205 0.0 0.0 0.00 0.00 0.00 37 1012.4
20260903183051 84 205 0.0 0.0 0.00 0.00 0.00 40 1012.7
20260903181541 81 213 0.0 0.0 0.00 0.00 0.00 39 1012.9
20260903180041 78 210 0.0 0.0 0.00 0.00 0.00 43 1013.0
20260903174532 74 215 0.0 0.0 0.00 0.00 0.00 48 1013.2
20260903173028 71 161 0.0 0.0 0.00 0.00 0.00 65 1013.2
20260903171522 68 217 0.0 0.0 0.00 0.00 0.00 76 1013.3
20260903170029 65 167 0.0 0.0 0.00 0.00 0.00 85 1013.3
20260903164521 63 200 0.0 0.0 0.00 0.00 0.00 90 1013.4
20260903163005 61 200 0.0 0.0 0.00 0.00 0.00 93 1013.5
20260903161502 60 198 0.0 0.0 0.00 0.00 0.00 93 1013.6
20260903160002 59 224 0.0 0.0 0.00 0.00 0.00 93 1013.6
20260903154559 58 246 0.0 0.0 0.00 0.00 0.00 93 1013.6
20260903153107 57 292 0.0 0.0 0.00 0.00 0.00 93 1013.7
20260903151607 57 305 0.0 0.0 0.00 0.00 0.00 93 1013.7
20260903150101 56 317 0.0 0.0 0.00 0.00 0.00 92 1013.9
20260903144556 56 318 0.0 0.0 0.00 0.00 0.00 92 1013.8
20260903143053 56 318 0.0 0.0 0.00 0.00 0.00 92 1013.6
20260903141551 56 318 0.0 0.0 0.00 0.00 0.00 92 1013.5
20260903134550 56 318 0.0 0.0 0.00 0.00 0.00 91 1013.2
20260903133048 56 318 0.0 0.0 0.00 0.00 0.00 91 1013.0
20260903131546 56 318 0.0 0.0 0.00 0.00 0.00 91 1013.2
20260903130048 56 318 0.0 0.0 0.00 0.00 0.00 91 1013.0
20260903124544 57 318 0.0 0.0 0.00 0.00 0.00 91 1013.1
20260903123042 56 318 0.0 0.0 0.00 0.00 0.00 90 1013.0
20260903121540 57 318 0.0 0.0 0.00 0.00 0.00 90 1013.0
20260903120051 57 318 0.0 0.0 0.00 0.00 0.00 90 1012.9
20260903114538 57 318 0.0 0.0 0.00 0.00 0.00 90 1012.9
20260903113041 57 318 0.0 0.0 0.00 0.00 0.00 90 1012.9
20260903111535 58 318 0.0 0.0 0.00 0.00 0.00 89 1013.0
20260903110032 58 318 0.0 0.0 0.00 0.00 0.00 89 1013.0
20260903104532 58 318 0.0 0.0 0.00 0.00 0.00 88 1013.1
20260903103031 58 318 0.0 0.0 0.00 0.00 0.00 88 1013.0
20260903101541 58 318 0.0 0.0 0.00 0.00 0.00 87 1013.1
20260903100032 59 318 0.0 0.0 0.00 0.00 0.00 88 1013.1
20260903094525 59 318 0.0 0.0 0.00 0.00 0.00 88 1013.2
20260903093025 59 318 0.0 0.0 0.00 0.00 0.00 87 1013.2
20260903091521 59 318 0.0 0.0 0.00 0.00 0.00 86 1013.4
20260903090021 59 318 0.0 0.0 0.00 0.00 0.00 86 1013.5
20260903084528 60 318 0.0 0.0 0.00 0.00 0.00 85 1013.6
20260903083022 60 318 0.0 0.0 0.00 0.00 0.00 85 1013.9
20260903081514 60 318 0.0 0.0 0.00 0.00 0.00 85 1014.0
20260903080029 60 318 0.0 0.0 0.00 0.00 0.00 84 1014.1
20260903074510 60 318 0.0 0.0 0.00 0.00 0.00 83 1013.9
20260903073008 61 318 0.0 0.0 0.00 0.00 0.00 83 1013.9
20260903071505 61 318 0.0 0.0 0.00 0.00 0.00 82 1013.9
20260903070002 62 318 0.0 0.0 0.00 0.00 0.00 81 1013.9
20260903064607 62 318 0.0 0.0 0.00 0.00 0.00 81 1014.0
20260903063059 62 318 0.0 0.0 0.00 0.00 0.00 80 1013.9
20260903061600 63 318 0.0 0.0 0.00 0.00 0.00 80 1013.8
20260903060058 64 318 0.0 0.0 0.00 0.00 0.00 80 1013.9
20260903054609 64 318 0.0 0.0 0.00 0.00 0.00 80 1014.0
20260903053106 65 318 0.0 0.0 0.00 0.00 0.00 80 1014.1
20260903051557 65 318 0.0 0.0 0.00 0.00 0.00 81 1014.1
20260903050058 66 318 0.0 0.0 0.00 0.00 0.00 81 1014.2
20260903044559 66 318 0.0 0.0 0.00 0.00 0.00 80 1014.1
20260903043055 67 318 0.0 0.0 0.00 0.00 0.00 79 1014.0
20260903041608 67 318 0.0 0.0 0.00 0.00 0.00 78 1014.0
20260903040105 68 319 0.0 0.0 0.00 0.00 0.00 75 1013.7
20260903034553 68 319 0.0 0.0 0.00 0.00 0.00 74 1013.5
20260903033052 69 318 0.0 0.0 0.00 0.00 0.00 72 1013.4
20260903031551 69 318 0.0 0.0 0.00 0.00 0.00 71 1013.3
20260903030052 70 317 0.0 0.0 0.00 0.00 0.00 70 1013.1
20260903024551 70 311 0.0 0.0 0.00 0.00 0.00 68 1013.0
20260903023050 71 287 0.0 0.0 0.00 0.00 0.00 64 1012.9
20260903021549 73 279 0.0 0.0 0.00 0.00 0.00 60 1012.9
20260903020048 75 275 0.0 0.0 0.00 0.00 0.00 54 1012.9
20260903014550 76 259 0.0 0.0 0.00 0.00 0.00 54 1012.8
20260903013047 77 265 0.0 0.0 0.00 0.00 0.00 51 1012.6
20260903011551 78 263 0.0 0.0 0.00 0.00 0.00 50 1012.7
20260903010047 79 304 0.0 0.0 0.00 0.00 0.00 51 1012.6
20260903004548 80 283 0.0 0.0 0.00 0.00 0.00 49 1012.5
20260903003045 81 329 0.0 0.0 0.00 0.00 0.00 48 1012.5
20260903001559 82 290 0.0 0.0 0.00 0.00 0.00 47 1012.5
20260903000043 82 282 0.0 0.0 0.00 0.00 0.00 45 1012.5
20260902234544 83 257 0.0 0.0 0.00 0.00 0.00 44 1012.6
20260902233041 83 229 0.0 0.0 0.00 0.00 0.00 45 1012.7
20260902231541 83 244 0.0 0.0 0.00 0.00 0.00 47 1012.7
20260902230040 83 257 0.0 0.0 0.00 0.00 0.00 46 1012.8
20260902224545 84 296 0.0 0.0 0.00 0.00 0.00 46 1012.8